Tracking 31027 objects as of 19-Jul-2025
HD Live streaming from Space Station
objects crossing your sky now

STARLINK-6028

Track STARLINK-6028 now!
10-day predictions
STARLINK-6028 is classified as:


NORAD ID: 56818
Int'l Code: 2023-078BD
Perigee: 576.7 km
Apogee: 581.7 km
Inclination: 70.0 °
Period: 96.1 minutes
Semi major axis: 6950 km
RCS: Unknown
Launch date: May 31, 2023
Source: United States (US)
Launch site: AIR FORCE WESTERN TEST RANGE (AFWTR)
Your satellite tracking list
RESURS O1 DEB
Track 1 satellite(s)




NASA's NSSDC Master Catalog

Two Line Element Set (TLE):
1 56818U 23078BD  25199.82305786 -.00000604  00000-0 -42814-4 0  9998
2 56818  69.9980 213.9378 0003579 263.4988  96.5763 14.98328838117917
Source of the keplerian elements: AFSPC